Location: Cantaing
(50.1487°N, 3.1675°E)
Time: 10:34:40
(UTC+00:00)

Cosmos 2344 - Pass Details

Date: 14 January 2026
Orbit: 1196 x 3047 km, 63.3° (Epoch: 11 February)

Event Time Altitude Azimuth Distance (km) Brightness Sun altitude
Exits shadow 04:10:15 33° 351° (N) 1,922 4.4 -33.1°
Drops below altitude 10° 04:16:55 10° 51° (NE) 3,396 6.4 -32.0°
Sets 04:20:24 0° 61° (ENE) 4,552 7.4 -31.4°
